EW7837 Weather Reports


time (UTC)temp
C
wind
direction
speed
KPH
gust
KPH
rain 1hr
cm
rain 24hr
cm
rain mn
cm
humidity
%
barometer
mb
20260903213019 26 273 0.0 0.0 0.00 0.00 0.00 65 1010.1
20260903211515 26 227 0.0 0.0 0.00 0.00 0.00 67 1010.1
20260903210015 26 260 0.0 0.0 0.00 0.00 0.00 66 1010.0
20260903204516 26 267 0.0 0.0 0.00 0.00 0.00 67 1010.1
20260903203012 25 265 0.0 0.0 0.00 0.00 0.00 65 1010.3
20260903201509 25 265 1.6 0.0 0.00 0.00 0.00 68 1010.3
20260903200010 25 221 1.6 0.0 0.00 0.00 0.00 69 1010.5
20260903194505 25 209 0.0 0.0 0.00 0.00 0.00 68 1010.4
20260903193005 25 238 0.0 0.0 0.00 0.00 0.00 67 1010.6
20260903191538 26 234 0.0 0.0 0.00 0.00 0.00 67 1010.7
20260903190033 25 257 0.0 0.0 0.00 0.00 0.00 65 1010.9
20260903184558 26 257 0.0 0.0 0.00 0.00 0.00 65 1011.1
20260903183055 25 243 0.0 0.0 0.00 0.00 0.00 64 1011.0
20260903181549 26 245 0.0 0.0 0.00 0.00 0.00 63 1011.3
20260903180049 25 242 0.0 0.0 0.00 0.00 0.00 64 1011.3
20260903174543 26 253 0.0 0.0 0.00 0.00 0.00 65 1011.4
20260903173039 25 254 0.0 0.0 0.00 0.00 0.00 63 1011.1
20260903171515 25 261 0.0 0.0 0.00 0.00 0.00 64 1011.5
20260903170011 24 261 0.0 0.0 0.00 0.00 0.00 66 1011.4
20260903164506 23 261 0.0 0.0 0.00 0.00 0.00 70 1011.5
20260903163037 22 261 0.0 0.0 0.00 0.00 0.00 74 1011.2
20260903161537 22 261 0.0 0.0 0.00 0.00 0.00 76 1011.7
20260903160050 21 261 0.0 0.0 0.00 0.00 0.00 76 1011.7
20260903154519 21 261 0.0 0.0 0.00 0.00 0.00 80 1011.7
20260903153013 20 261 0.0 0.0 0.00 0.00 0.00 80 1011.7
20260903151509 18 261 0.0 0.0 0.00 0.00 0.00 84 1011.5
20260903150014 17 261 0.0 0.0 0.00 0.00 0.00 87 1011.8
20260903144605 17 261 0.0 0.0 0.00 0.00 0.00 89 1011.7
20260903143031 16 261 0.0 0.0 0.00 0.00 0.00 91 1011.6
20260903141526 15 261 0.0 0.0 0.00 0.00 0.00 91 1011.6
20260903140022 15 261 0.0 0.0 0.00 0.00 0.00 91 1011.0
20260903134521 15 261 0.0 0.0 0.00 0.00 0.00 91 1011.1
20260903133020 15 261 0.0 0.0 0.00 0.00 0.00 91 1011.1
20260903131520 15 261 0.0 0.0 0.00 0.00 0.00 91 1011.1
20260903130017 15 261 0.0 0.0 0.00 0.00 0.00 90 1011.1
20260903124517 15 261 0.0 0.0 0.00 0.00 0.00 90 1010.8
20260903123017 15 261 0.0 0.0 0.00 0.00 0.00 90 1011.1
20260903121515 15 261 0.0 0.0 0.00 0.00 0.00 90 1011.0
20260903120012 15 261 0.0 0.0 0.00 0.00 0.00 90 1011.1
20260903114512 15 261 0.0 0.0 0.00 0.00 0.00 90 1011.0
20260903113010 15 261 0.0 0.0 0.00 0.00 0.00 89 1010.8
20260903111509 15 261 0.0 0.0 0.00 0.00 0.00 90 1011.1
20260903110005 15 261 0.0 0.0 0.00 0.00 0.00 89 1011.1
20260903104505 15 261 0.0 0.0 0.00 0.00 0.00 89 1011.1
20260903103003 15 261 0.0 0.0 0.00 0.00 0.00 90 1011.1
20260903101503 15 261 0.0 0.0 0.00 0.00 0.00 89 1010.9
20260903100031 15 261 0.0 0.0 0.00 0.00 0.00 89 1011.2
20260903094535 16 261 0.0 0.0 0.00 0.00 0.00 89 1011.3
20260903093039 16 261 0.0 0.0 0.00 0.00 0.00 88 1011.5
20260903091527 16 261 0.0 0.0 0.00 0.00 0.00 88 1011.6
20260903090031 16 261 0.0 0.0 0.00 0.00 0.00 88 1011.4
20260903084525 16 261 0.0 0.0 0.00 0.00 0.00 88 1011.9
20260903083022 16 261 0.0 0.0 0.00 0.00 0.00 87 1012.1
20260903081521 16 261 0.0 0.0 0.00 0.00 0.00 87 1012.1
20260903080027 16 261 0.0 0.0 0.00 0.00 0.00 88 1012.1
20260903074518 16 261 0.0 0.0 0.00 0.00 0.00 87 1011.7
20260903073055 16 261 0.0 0.0 0.00 0.00 0.00 87 1011.6
20260903071547 17 261 0.0 0.0 0.00 0.00 0.00 86 1012.0
20260903070041 17 261 0.0 0.0 0.00 0.00 0.00 85 1012.1
20260903064543 17 261 0.0 0.0 0.00 0.00 0.00 85 1012.1
20260903063040 17 261 0.0 0.0 0.00 0.00 0.00 85 1011.7
20260903061544 17 261 0.0 0.0 0.00 0.00 0.00 85 1011.7
20260903060034 18 261 0.0 0.0 0.00 0.00 0.00 84 1012.1
20260903054532 18 261 0.0 0.0 0.00 0.00 0.00 84 1012.2
20260903053031 18 261 0.0 0.0 0.00 0.00 0.00 83 1012.2
20260903051530 18 261 0.0 0.0 0.00 0.00 0.00 83 1012.2
20260903050100 18 261 0.0 0.0 0.00 0.00 0.00 82 1012.1
20260903044559 19 261 0.0 0.0 0.00 0.00 0.00 81 1011.9
20260903043024 19 261 0.0 0.0 0.00 0.00 0.00 81 1011.9
20260903041529 20 261 0.0 0.0 0.00 0.00 0.00 78 1012.1
20260903040013 21 261 0.0 0.0 0.00 0.00 0.00 79 1011.9
20260903034518 21 261 0.0 0.0 0.00 0.00 0.00 79 1011.7
20260903021629 22 261 0.0 0.0 0.00 0.00 0.00 71 1011.1
20260903020128 23 261 0.0 0.0 0.00 0.00 0.00 67 1011.1
20260903014601 24 261 0.0 0.0 0.00 0.00 0.00 64 1011.1
20260903013059 25 261 0.0 0.0 0.00 0.00 0.00 63 1010.7
20260903011559 25 261 0.0 0.0 0.00 0.00 0.00 65 1010.6
20260903010101 25 263 0.0 0.0 0.00 0.00 0.00 66 1010.6
20260903004600 25 275 0.0 0.0 0.00 0.00 0.00 66 1010.6
20260903003100 26 244 0.0 0.0 0.00 0.00 0.00 65 1010.7
20260903001603 25 242 0.0 0.0 0.00 0.00 0.00 65 1011.1
20260903000054 26 257 0.0 0.0 0.00 0.00 0.00 64 1011.1
20260902234601 26 259 0.0 0.0 0.00 0.00 0.00 63 1011.3
20260902233057 26 270 0.0 0.0 0.00 0.00 0.00 63 1011.4
20260902231550 26 246 0.0 0.0 0.00 0.00 0.00 64 1011.1
20260902230051 25 232 0.0 0.0 0.00 0.00 0.00 64 1011.2
20260902224600 26 255 0.0 0.0 0.00 0.00 0.00 65 1011.4
20260902223019 26 262 0.0 0.0 0.00 0.00 0.00 65 1011.6
20260902221523 25 244 0.0 0.0 0.00 0.00 0.00 66 1011.7
20260902220016 25 221 0.0 0.0 0.00 0.00 0.00 67 1012.1
20260902214525 25 262 0.0 0.0 0.00 0.00 0.00 66 1012.1